Starlink 11272

operational
NORAD ID: 60723 Int'l Des: 2024-152 Owner: SPXS Country: US Constellation: starlink
LEOCIRCULAR

About Starlink 11272

Description loading...

Live Position

Loading 3D Globe...

Upcoming Passes

Altitude History

Altitude vs Time

uPlot chart will show altitude changes over time

Two-Line Element Set

1 60723U 24152D 26037.80880581 -.00002018 00000-0 -11805-4 0 9990
2 60723 53.1590 268.5768 0001156 53.0072 307.1051 15.69700525 83980
Epoch: Feb 6, 2026 • Age: 6 hours

Current Status

Altitude 370.5 km
Velocity 7.69 km/s
Sub-Earth Point -32.13°S, 35.85°W
Launch Date Aug 28, 2024
Age 1.4 years
Type internet

Technical Details

Classification Payload
Mass 960.00 kg
Dry Mass 910.00 kg
Total Mass 960.00 kg
Length 0.30 m
Diameter 4.10 m
Span 29.00 m
Shape Box + pan
Manufacturer SPXS
Bus Type Starlink V2MD
Phase Status In Orbit
Owner/State SPXS/US

Large Constellations

Loading constellations...